SWIATOWID (44426 NORAD) Tracking and Keplerian Element Data

This shows tracking and keplerian element data for the satellite.

Feedback or suggestion? Click here.




ElementValue
Catalog44426
NameSWIATOWID
Epoch Orbit696
Epoch Day229.09617761
Epoch Year2019
RAAN58.8119
Inclination51.6421
Eccentricity0.0003879
Argument of Perigee259.7574
Mean Anonmoly100.2978
Mean Motion15.52122661
Decay Rate6.488E-05
L11 44426U 98067QL 19229.09617761 .00006488 00000-0 11289-3 0 9990
L22 44426 51.6421 58.8119 0003879 259.7574 100.2978 15.52122661 6968

Live tracking and technical data element details for SWIATOWID (NORAD 44426). SWIATOWID can be tracked NOW for your location showing map with azimuth and elevation plus other details from your city location.

Track the satellite on the map from your city or location and see movement details for azimuth, elevation, latitude, longitude, range, height, and movement on the map or in text.







IsCatalogInMostPopularTable: catalog: 44426, numindb: 6
Update: records affected: 1



GetName: 44426 SWIATOWID

Hit Count: updated at: Wed, 21 Aug 2019 12:31:19 GMT